GW6781 Weather Reports


time (UTC)temp
C
wind
direction
speed
KPH
gust
KPH
rain 1hr
cm
rain 24hr
cm
rain mn
cm
humidity
%
barometer
mb
20260906084613 22 0 0.0 3.2 0.00 0.00 0.00 90 1013.6
20260906084058 22 0 0.0 0.0 0.00 0.00 0.00 89 1013.5
20260906083557 22 0 0.0 1.6 0.00 0.00 0.00 89 1013.6
20260906083103 22 0 0.0 3.2 0.00 0.00 0.00 88 1013.5
20260906082557 22 0 0.0 3.2 0.00 0.00 0.00 89 1013.6
20260906082148 22 214 1.6 3.2 0.00 0.00 0.00 89 1013.6
20260906081607 22 214 0.0 6.4 0.00 0.00 0.00 88 1013.6
20260906081057 23 198 1.6 6.4 0.00 0.00 0.00 88 1013.5
20260906080557 22 0 0.0 4.8 0.00 0.00 0.00 87 1013.5
20260906080107 23 0 0.0 8.0 0.00 0.00 0.00 87 1013.4
20260906075556 23 229 1.6 8.0 0.00 0.00 0.00 87 1013.3
20260906075057 23 217 3.2 8.0 0.00 0.00 0.00 86 1013.2
20260906074612 23 213 3.2 6.4 0.00 0.00 0.00 86 1013.3
20260906074057 23 232 3.2 4.8 0.00 0.00 0.00 86 1013.2
20260906073600 23 226 0.0 3.2 0.00 0.00 0.00 85 1013.2
20260906073110 23 0 0.0 3.2 0.00 0.00 0.00 85 1013.2
20260906072557 23 226 0.0 4.8 0.00 0.00 0.00 86 1013.2
20260906072059 23 0 0.0 4.8 0.00 0.00 0.00 85 1013.2
20260906071609 23 226 0.0 3.2 0.00 0.00 0.00 85 1013.3
20260906071057 23 0 0.0 0.0 0.00 0.00 0.00 85 1013.3
20260906070557 23 0 0.0 1.6 0.00 0.00 0.00 85 1013.4
20260906070134 23 0 0.0 3.2 0.00 0.00 0.00 85 1013.4
20260906065559 23 0 0.0 3.2 0.00 0.00 0.00 85 1013.5
20260906065056 22 0 0.0 0.0 0.00 0.00 0.00 86 1013.5
20260906064602 22 0 0.0 0.0 0.00 0.00 0.00 86 1013.6
20260906064056 22 0 0.0 0.0 0.00 0.00 0.00 86 1013.7
20260906063557 22 0 0.0 0.0 0.00 0.00 0.00 86 1013.7
20260906063105 22 0 0.0 0.0 0.00 0.00 0.00 86 1013.9
20260906062557 22 0 0.0 0.0 0.00 0.00 0.00 86 1014.0
20260906062057 22 0 0.0 0.0 0.00 0.00 0.00 86 1014.1
20260906061635 22 0 0.0 1.6 0.00 0.00 0.00 86 1014.2
20260906061100 22 0 0.0 1.6 0.00 0.00 0.00 86 1014.1
20260906060600 22 263 0.0 1.6 0.00 0.00 0.00 86 1014.1
20260906060104 22 0 0.0 0.0 0.00 0.00 0.00 86 1014.0
20260906055600 22 0 0.0 0.0 0.00 0.00 0.00 86 1014.0
20260906055057 22 0 0.0 0.0 0.00 0.00 0.00 85 1014.0
20260906054602 22 0 0.0 0.0 0.00 0.00 0.00 85 1014.0
20260906054057 23 0 0.0 0.0 0.00 0.00 0.00 85 1014.1
20260906053557 23 0 0.0 1.6 0.00 0.00 0.00 85 1014.1
20260906053102 23 0 0.0 1.6 0.00 0.00 0.00 85 1014.1
20260906052557 22 0 0.0 1.6 0.00 0.00 0.00 85 1014.0
20260906052058 23 0 0.0 1.6 0.00 0.00 0.00 85 1014.0
20260906051604 23 0 0.0 1.6 0.00 0.00 0.00 85 1014.1
20260906051055 23 0 0.0 1.6 0.00 0.00 0.00 85 1014.1
20260906050557 23 0 0.0 1.6 0.00 0.00 0.00 85 1014.2
20260906050115 23 0 0.0 3.2 0.00 0.00 0.00 84 1014.1
20260906045557 23 0 0.0 3.2 0.00 0.00 0.00 84 1014.1
20260906045057 23 263 0.0 4.8 0.00 0.00 0.00 84 1014.2
20260906044604 23 0 0.0 6.4 0.00 0.00 0.00 83 1014.1
20260906044057 23 301 0.0 6.4 0.00 0.00 0.00 83 1014.2
20260906043556 23 279 0.0 4.8 0.00 0.00 0.00 82 1014.2
20260906043111 23 0 0.0 3.2 0.00 0.00 0.00 81 1014.1
20260906042557 23 0 0.0 4.8 0.00 0.00 0.00 81 1014.2
20260906042056 23 0 0.0 4.8 0.00 0.00 0.00 81 1014.2
20260906041601 23 0 0.0 4.8 0.00 0.00 0.00 81 1014.2
20260906041100 23 0 0.0 4.8 0.00 0.00 0.00 80 1014.3
20260906040557 23 0 0.0 3.2 0.00 0.00 0.00 80 1014.3
20260906040119 23 0 0.0 3.2 0.00 0.00 0.00 80 1014.2
20260906035556 23 0 0.0 3.2 0.00 0.00 0.00 80 1014.3
20260906035057 23 0 0.0 1.6 0.00 0.00 0.00 81 1014.3
20260906034605 23 0 0.0 3.2 0.00 0.00 0.00 81 1014.4
20260906034057 23 0 0.0 3.2 0.00 0.00 0.00 81 1014.4
20260906033557 23 0 0.0 3.2 0.00 0.00 0.00 82 1014.4
20260906033103 23 247 0.0 3.2 0.00 0.00 0.00 83 1014.5
20260906032601 22 0 0.0 1.6 0.00 0.00 0.00 83 1014.5
20260906032100 22 0 0.0 1.6 0.00 0.00 0.00 83 1014.6
20260906031608 22 0 0.0 3.2 0.00 0.00 0.00 84 1014.6
20260906031057 22 0 0.0 3.2 0.00 0.00 0.00 84 1014.4
20260906030557 22 247 0.0 3.2 0.00 0.00 0.00 84 1014.5
20260906030110 23 0 0.0 3.2 0.00 0.00 0.00 85 1014.6
20260906025556 23 247 0.0 3.2 0.00 0.00 0.00 84 1014.6
20260906025059 23 0 0.0 3.2 0.00 0.00 0.00 85 1014.6
20260906024603 23 0 0.0 4.8 0.00 0.00 0.00 84 1014.6
20260906024101 23 0 0.0 4.8 0.00 0.00 0.00 84 1014.5
20260906023557 23 247 1.6 4.8 0.00 0.00 0.00 84 1014.4
20260906023131 23 261 0.0 3.2 0.00 0.00 0.00 83 1014.2
20260906022557 23 261 0.0 3.2 0.00 0.00 0.00 83 1014.1
20260906022059 23 0 0.0 3.2 0.00 0.00 0.00 83 1014.1
20260906021608 23 261 0.0 4.8 0.00 0.00 0.00 83 1014.0
20260906021056 23 0 0.0 4.8 0.00 0.00 0.00 82 1014.0
20260906020557 24 257 1.6 4.8 0.00 0.00 0.00 82 1014.2
20260906020104 24 199 1.6 9.7 0.00 0.00 0.00 82 1014.1
20260906015557 24 256 3.2 9.7 0.00 0.00 0.00 81 1014.2
20260906015057 24 223 1.6 8.0 0.00 0.00 0.00 81 1014.2
20260906014626 24 221 1.6 8.0 0.00 0.00 0.00 81 1014.1
20260906014058 24 191 3.2 14.5 0.00 0.00 0.00 81 1014.1
20260906013557 25 216 3.2 14.5 0.00 0.00 0.00 82 1014.0
20260906013102 25 204 0.0 1.6 0.00 0.00 0.00 81 1014.0
20260906012556 25 0 0.0 1.6 0.00 0.00 0.00 81 1013.9
20260906012057 25 0 0.0 3.2 0.00 0.00 0.00 82 1013.9
20260906011602 25 0 0.0 6.4 0.00 0.00 0.00 82 1014.0
20260906011056 25 146 0.0 6.4 0.00 0.00 0.00 81 1013.7
20260906010556 25 217 0.0 6.4 0.00 0.00 0.00 81 1013.5
20260906010107 25 0 0.0 3.2 0.00 0.00 0.00 81 1013.6
20260906005557 25 0 0.0 3.2 0.00 0.00 0.00 80 1013.5
20260906005058 26 0 0.0 3.2 0.00 0.00 0.00 79 1013.3
20260906004614 26 243 0.0 8.0 0.00 0.00 0.00 79 1013.4
20260906004100 26 0 3.2 11.3 0.00 0.00 0.00 78 1013.6
20260906003557 26 0 0.0 11.3 0.00 0.00 0.00 77 1013.4
20260906003113 26 184 6.4 11.3 0.00 0.00 0.00 77 1013.4
20260906002557 27 270 0.0 0.0 0.00 0.00 0.00 76 1013.6
20260906002057 27 0 0.0 0.0 0.00 0.00 0.00 75 1013.6
20260906001603 27 0 0.0 3.2 0.00 0.00 0.00 75 1013.4
20260906001057 27 0 0.0 3.2 0.00 0.00 0.00 75 1013.5
20260906000558 27 229 0.0 4.8 0.00 0.00 0.00 74 1013.5
20260906000111 28 0 0.0 4.8 0.00 0.00 0.00 73 1013.5
20260905235558 28 0 0.0 4.8 0.00 0.00 0.00 72 1013.4
20260905235059 28 0 0.0 11.3 0.00 0.00 0.00 72 1013.6
20260905234604 28 0 0.0 11.3 0.00 0.00 0.00 71 1013.6
20260905234058 29 235 0.0 0.0 0.00 0.00 0.00 69 1013.4
20260905233558 29 0 0.0 0.0 0.00 0.00 0.00 68 1013.6
20260905233109 29 0 0.0 0.0 0.00 0.00 0.00 68 1013.4
20260905232557 29 0 0.0 1.6 0.00 0.00 0.00 68 1013.5
20260905232057 30 0 0.0 1.6 0.00 0.00 0.00 68 1013.5
20260905231602 30 232 0.0 0.0 0.00 0.00 0.00 68 1013.4
20260905231056 30 0 0.0 0.0 0.00 0.00 0.00 68 1013.3
20260905230625 30 0 0.0 0.0 0.00 0.00 0.00 67 1013.1
20260905230108 30 0 0.0 0.0 0.00 0.00 0.00 67 1013.2
20260905225557 30 0 0.0 1.6 0.00 0.00 0.00 66 1013.3
20260905225056 30 0 0.0 1.6 0.00 0.00 0.00 65 1013.2
20260905224608 30 0 0.0 1.6 0.00 0.00 0.00 65 1013.2
20260905224057 30 0 0.0 3.2 0.00 0.00 0.00 66 1013.1
20260905223557 30 0 0.0 4.8 0.00 0.00 0.00 64 1013.2
20260905223102 30 232 0.0 4.8 0.00 0.00 0.00 65 1013.2
20260905222557 30 232 1.6 4.8 0.00 0.00 0.00 64 1013.1
20260905222100 30 146 0.0 6.4 0.00 0.00 0.00 65 1013.2
20260905221606 29 146 1.6 8.0 0.00 0.00 0.00 64 1013.2
20260905221058 29 146 3.2 8.0 0.00 0.00 0.00 63 1013.3
20260905220556 29 136 4.8 11.3 0.00 0.00 0.00 63 1013.3
20260905220118 30 175 4.8 11.3 0.00 0.00 0.00 63 1013.4
20260905215558 30 114 3.2 6.4 0.00 0.00 0.00 63 1013.3
20260905215057 30 117 1.6 4.8 0.00 0.00 0.00 63 1013.4
20260905214602 30 0 0.0 4.8 0.00 0.00 0.00 64 1013.5
20260905214057 29 74 1.6 6.4 0.00 0.00 0.00 63 1013.7
20260905213557 29 113 3.2 8.0 0.00 0.00 0.00 63 1013.7
20260905213108 29 88 3.2 8.0 0.00 0.00 0.00 62 1013.7
20260905212558 29 113 3.2 9.7 0.00 0.00 0.00 63 1013.6
20260905212057 29 80 3.2 11.3 0.00 0.00 0.00 64 1013.9
20260905211609 29 131 4.8 11.3 0.00 0.00 0.00 62 1013.8
20260905211057 28 126 3.2 12.9 0.00 0.00 0.00 62 1013.7
20260905210557 28 207 4.8 12.9 0.00 0.00 0.00 64 1013.9
20260905210104 28 141 6.4 12.9 0.00 0.00 0.00 64 1014.0
20260905205557 28 147 6.4 12.9 0.00 0.00 0.00 67 1014.1
20260905205057 28 148 8.0 12.9 0.00 0.00 0.00 67 1014.0
20260905204602 28 123 6.4 14.5 0.00 0.00 0.00 69 1014.2
20260905204059 28 153 8.0 14.5 0.00 0.00 0.00 69 1014.0
20260905203559 28 146 6.4 14.5 0.00 0.00 0.00 68 1013.9
20260905203103 28 148 8.0 14.5 0.00 0.00 0.00 69 1013.9
20260905202557 28 134 8.0 14.5 0.00 0.00 0.00 70 1013.9
20260905202057 28 138 6.4 12.9 0.00 0.00 0.00 68 1014.2
20260905201604 28 142 6.4 12.9 0.00 0.00 0.00 69 1014.2
20260905201057 28 128 6.4 14.5 0.00 0.00 0.00 68 1014.3
20260905200556 28 59 8.0 14.5 0.00 0.00 0.00 69 1014.3
20260905200114 28 92 6.4 11.3 0.00 0.00 0.00 68 1014.4
20260905195557 28 80 6.4 12.9 0.00 0.00 0.00 69 1014.3
20260905195100 28 109 4.8 16.1 0.00 0.00 0.00 67 1014.3
20260905194604 28 63 8.0 16.1 0.00 0.00 0.00 68 1014.5
20260905194057 27 93 6.4 16.1 0.00 0.00 0.00 72 1014.5
20260905193557 27 105 11.3 17.7 0.00 0.00 0.00 73 1014.6
20260905193103 27 112 9.7 17.7 0.00 0.00 0.00 74 1014.7
20260905192558 27 109 8.0 16.1 0.00 0.00 0.00 75 1015.0
20260905192100 27 136 6.4 16.1 0.00 0.00 0.00 77 1015.1
20260905191604 27 89 8.0 17.7 0.00 0.00 0.00 76 1015.2
20260905191057 27 125 11.3 19.3 0.00 0.00 0.00 71 1015.2
20260905190601 27 119 11.3 19.3 0.00 0.00 0.00 77 1015.3
20260905190113 27 148 14.5 22.5 0.00 0.00 0.00 78 1015.1
20260905185558 27 140 14.5 24.1 0.00 0.00 0.00 78 1015.3
20260905185058 27 120 14.5 24.1 0.00 0.00 0.00 77 1015.2
20260905184607 28 134 12.9 19.3 0.00 0.00 0.00 76 1015.2
20260905184057 28 69 9.7 20.9 0.00 0.00 0.00 75 1015.3
20260905183600 28 132 12.9 20.9 0.00 0.00 0.00 75 1015.2
20260905183125 28 119 8.0 17.7 0.00 0.00 0.00 73 1015.1
20260905182556 28 80 11.3 19.3 0.00 0.00 0.00 70 1015.4
20260905182057 28 109 9.7 20.9 0.00 0.00 0.00 71 1015.5
20260905181605 28 67 12.9 20.9 0.00 0.00 0.00 69 1015.4
20260905181100 28 82 12.9 20.9 0.00 0.00 0.00 68 1015.6
20260905180557 28 87 12.9 19.3 0.00 0.00 0.00 69 1015.7
20260905180104 27 54 8.0 16.1 0.00 0.00 0.00 71 1015.9
20260905175557 27 28 8.0 17.7 0.00 0.00 0.00 72 1015.9
20260905175058 27 110 6.4 20.9 0.00 0.00 0.00 74 1016.0
20260905174606 27 66 8.0 20.9 0.00 0.00 0.00 75 1016.0
20260905174056 27 96 11.3 20.9 0.00 0.00 0.00 75 1016.2
20260905173557 27 55 11.3 25.7 0.00 0.00 0.00 75 1016.4
20260905173101 26 74 16.1 25.7 0.00 0.00 0.00 75 1016.4
20260905172558 27 85 14.5 25.7 0.00 0.00 0.00 75 1016.3
20260905172057 27 91 11.3 25.7 0.00 0.00 0.00 75 1016.4
20260905171605 27 87 17.7 25.7 0.00 0.00 0.00 73 1016.3
20260905171057 28 75 6.4 20.9 0.00 0.00 0.00 71 1016.3
20260905170557 29 350 8.0 20.9 0.00 0.00 0.00 69 1016.4
20260905170107 30 360 4.8 14.5 0.00 0.00 0.00 68 1016.2
20260905165600 30 26 1.6 11.3 0.00 0.00 0.00 67 1016.3
20260905165058 31 0 1.6 11.3 0.00 0.00 0.00 67 1016.3
20260905164607 31 348 1.6 11.3 0.00 0.00 0.00 64 1016.4
20260905164058 31 63 1.6 6.4 0.00 0.00 0.00 64 1016.3
20260905163557 31 341 0.0 6.4 0.00 0.00 0.00 69 1016.0
20260905163105 31 0 3.2 9.7 0.00 0.00 0.00 68 1015.9
20260905162557 31 0 1.6 9.7 0.00 0.00 0.00 68 1016.1
20260905162056 31 166 3.2 9.7 0.00 0.00 0.00 66 1016.1
20260905161604 31 113 3.2 8.0 0.00 0.00 0.00 66 1016.1
20260905161057 31 78 3.2 8.0 0.00 0.00 0.00 66 1016.3
20260905160557 31 19 0.0 4.8 0.00 0.00 0.00 70 1016.4
20260905160123 30 0 0.0 4.8 0.00 0.00 0.00 71 1016.3
20260905155557 30 0 0.0 6.4 0.00 0.00 0.00 70 1016.4
20260905155057 30 333 1.6 6.4 0.00 0.00 0.00 71 1016.3
20260905154601 29 175 0.0 8.0 0.00 0.00 0.00 73 1016.5
20260905154057 29 179 3.2 11.3 0.00 0.00 0.00 73 1016.4
20260905153557 29 237 4.8 12.9 0.00 0.00 0.00 72 1016.4
20260905153112 29 213 3.2 12.9 0.00 0.00 0.00 74 1016.3
20260905152557 29 237 6.4 12.9 0.00 0.00 0.00 73 1016.3
20260905152101 29 179 1.6 9.7 0.00 0.00 0.00 76 1016.3
20260905151609 28 223 3.2 9.7 0.00 0.00 0.00 75 1016.3
20260905151057 29 206 4.8 9.7 0.00 0.00 0.00 77 1016.3
20260905150556 28 179 1.6 9.7 0.00 0.00 0.00 77 1016.3
20260905150104 28 134 0.0 9.7 0.00 0.00 0.00 81 1016.4
20260905145557 28 150 3.2 8.0 0.00 0.00 0.00 78 1016.3
20260905145100 28 245 1.6 6.4 0.00 0.00 0.00 79 1016.5
20260905144604 27 213 1.6 8.0 0.00 0.00 0.00 81 1016.5
20260905144057 27 0 0.0 8.0 0.00 0.00 0.00 82 1016.5
20260905143557 27 241 1.6 6.4 0.00 0.00 0.00 80 1016.5
20260905143107 27 203 1.6 6.4 0.00 0.00 0.00 81 1016.6
20260905142559 26 196 1.6 6.4 0.00 0.00 0.00 81 1016.5
20260905142058 26 171 1.6 8.0 0.00 0.00 0.00 82 1016.5
20260905141602 26 187 3.2 8.0 0.00 0.00 0.00 81 1016.5
20260905141057 26 205 1.6 9.7 0.00 0.00 0.00 81 1016.5
20260905140558 26 194 4.8 9.7 0.00 0.00 0.00 81 1016.6
20260905140109 26 212 3.2 9.7 0.00 0.00 0.00 81 1016.4
20260905135557 26 209 1.6 6.4 0.00 0.00 0.00 80 1016.5
20260905135057 26 188 0.0 4.8 0.00 0.00 0.00 81 1016.5
20260905134605 26 192 1.6 4.8 0.00 0.00 0.00 81 1016.6
20260905134057 26 173 1.6 4.8 0.00 0.00 0.00 81 1016.6
20260905133557 26 188 1.6 6.4 0.00 0.00 0.00 80 1016.6
20260905133107 26 0 1.6 6.4 0.00 0.00 0.00 80 1016.7
20260905132558 26 221 3.2 8.0 0.00 0.00 0.00 79 1016.7
20260905132058 26 205 3.2 8.0 0.00 0.00 0.00 79 1016.7
20260905131610 26 135 3.2 6.4 0.00 0.00 0.00 79 1016.7
20260905131057 26 106 1.6 6.4 0.00 0.00 0.00 80 1016.8
20260905130558 26 142 1.6 6.4 0.00 0.00 0.00 79 1016.9
20260905130125 26 134 1.6 4.8 0.00 0.00 0.00 81 1017.0
20260905125557 26 134 1.6 4.8 0.00 0.00 0.00 81 1017.0
20260905125057 26 134 1.6 4.8 0.00 0.00 0.00 80 1017.0
20260905124605 25 134 1.6 4.8 0.00 0.00 0.00 82 1016.9
20260905124057 25 92 0.0 4.8 0.00 0.00 0.00 82 1017.1
20260905123557 25 92 0.0 3.2 0.00 0.00 0.00 82 1017.0
20260905123104 25 92 0.0 3.2 0.00 0.00 0.00 83 1017.0
20260905122557 25 92 0.0 3.2 0.00 0.00 0.00 84 1016.9
20260905122057 25 0 0.0 3.2 0.00 0.00 0.00 84 1016.9
20260905121611 24 92 1.6 3.2 0.00 0.00 0.00 85 1016.9
20260905121057 24 0 0.0 3.2 0.00 0.00 0.00 85 1016.8
20260905120600 24 92 1.6 3.2 0.00 0.00 0.00 85 1016.8
20260905120114 24 0 0.0 3.2 0.00 0.00 0.00 85 1016.6
20260905115559 23 0 0.0 0.0 0.00 0.00 0.00 86 1016.6
20260905115057 23 0 0.0 3.2 0.00 0.00 0.00 86 1016.5
20260905114604 23 0 0.0 3.2 0.00 0.00 0.00 86 1016.3
20260905114056 23 0 0.0 3.2 0.00 0.00 0.00 87 1016.1
20260905113558 23 0 0.0 1.6 0.00 0.00 0.00 87 1016.2
20260905113116 23 0 0.0 1.6 0.00 0.00 0.00 87 1016.1
20260905112558 23 0 0.0 0.0 0.00 0.00 0.00 87 1016.1
20260905112058 23 0 0.0 3.2 0.00 0.00 0.00 87 1016.0
20260905111613 23 0 0.0 3.2 0.00 0.00 0.00 87 1016.1
20260905111056 23 0 0.0 1.6 0.00 0.00 0.00 87 1016.0
20260905110603 23 0 0.0 1.6 0.00 0.00 0.00 87 1015.9
20260905110105 23 0 0.0 1.6 0.00 0.00 0.00 87 1015.8
20260905105557 23 0 0.0 1.6 0.00 0.00 0.00 87 1015.7
20260905105056 23 352 0.0 3.2 0.00 0.00 0.00 87 1015.6
20260905104604 23 0 0.0 4.8 0.00 0.00 0.00 87 1015.6
20260905104058 23 0 0.0 4.8 0.00 0.00 0.00 87 1015.5
20260905103556 23 0 0.0 4.8 0.00 0.00 0.00 87 1015.5
20260905103105 23 0 0.0 4.8 0.00 0.00 0.00 87 1015.6
20260905102557 23 0 0.0 1.6 0.00 0.00 0.00 87 1015.4
20260905102058 23 0 0.0 3.2 0.00 0.00 0.00 86 1015.3
20260905101606 23 0 0.0 3.2 0.00 0.00 0.00 86 1015.4
20260905101056 23 336 0.0 3.2 0.00 0.00 0.00 86 1015.5
20260905100557 23 0 1.6 3.2 0.00 0.00 0.00 86 1015.4
20260905100105 23 336 0.0 1.6 0.00 0.00 0.00 86 1015.3
20260905095557 23 0 0.0 1.6 0.00 0.00 0.00 86 1015.3
20260905095057 23 0 0.0 1.6 0.00 0.00 0.00 86 1015.3
20260905094604 23 0 0.0 4.8 0.00 0.00 0.00 86 1015.2
20260905094101 23 0 0.0 4.8 0.00 0.00 0.00 86 1015.1
20260905093557 23 0 1.6 6.4 0.00 0.00 0.00 86 1015.1
20260905093101 23 0 1.6 6.4 0.00 0.00 0.00 85 1015.1
20260905092558 23 327 1.6 4.8 0.00 0.00 0.00 85 1015.1
20260905092059 23 331 0.0 3.2 0.00 0.00 0.00 85 1015.0
20260905091609 23 257 0.0 3.2 0.00 0.00 0.00 85 1015.1
20260905091057 23 257 0.0 1.6 0.00 0.00 0.00 85 1015.2
20260905090556 23 0 0.0 0.0 0.00 0.00 0.00 84 1015.3
20260905085558 23 0 0.0 0.0 0.00 0.00 0.00 84 1015.3
20260905085058 23 0 0.0 0.0 0.00 0.00 0.00 83 1015.2